Oakes, ND

2:44 AM CDT on August 18, 2017 (GMT -0500)
Oakes

Weather History for K2D5 - March, 2013

Change the Weather History Date:

Friday, March 1, 2013

  Actual Average (KP67) Record (KP67)
Temperature  
Mean Temperature 8 °F -  
Max Temperature 17 °F 25 °F 34 °F (1998)
Min Temperature 0 °F 8 °F 1 °F (1997)
Degree Days  
Heating Degree Days 56    
Moisture  
Dew Point 7 °F    
Average Humidity 94    
Maximum Humidity 100    
Minimum Humidity 85    
Precipitation  
Precipitation 0.00 in - - ()
Sea Level Pressure  
Sea Level Pressure 30.35 in    
Wind  
Wind Speed 5 mph (WNW)    
Max Wind Speed 8 mph    
Max Gust Speed -    
Visibility 8 miles    
Events Fog , Snow    
Averages and records for this station are not official NWS values.
T = Trace of Precipitation, MM = Missing Value Source: NWS Daily Summary

Daily Weather History Graph

Daily Weather History Graph

Search for Another Location

Airport or City:

Trip Planner

Search our weather history database for the weather conditions in past years. The results will help you decide how hot, cold, wet, or windy it might be!

Date:

Astronomy

Mar. 01, 2013 Rise Set
Actual Time 7:10 AM CST 6:19 PM CST
Civil Twilight 6:40 AM CST 6:49 PM CST
Nautical Twilight 6:06 AM CST 7:23 PM CST
Astronomical Twilight 5:31 AM CST 7:58 PM CST
Moon 11:12 PM CST (3/1) 8:41 AM CST (3/1)
Length of Visible Light 12h 08m
Length of Day
11h 08m
Waning Gibbous, 83% of the Moon is Illuminated
Mar 1
Waning Gibbous
Mar 4
Last Quarter
Mar 11
New
Mar 19
First Quarter
Mar 27
Full

Hourly Weather History & Observations

Time (CST) Temp. Windchill Dew Point Humidity Pressure Visibility Wind Dir Wind Speed Gust Speed Precip Events Conditions
12:15 AM 8.6 °F 0.1 °F 8.6 °F 100% 30.29 in 10.0 mi West 4.6 mph - N/A   Unknown
12:35 AM 8.6 °F 0.1 °F 8.6 °F 100% 30.28 in 10.0 mi NNW 4.6 mph - N/A   Unknown
12:55 AM 8.6 °F -1.3 °F 6.8 °F 92% 30.29 in 9.0 mi NW 5.8 mph - N/A Snow Light Snow
1:15 AM 6.8 °F -3.5 °F 6.8 °F 100% 30.29 in 10.0 mi NNW 5.8 mph - N/A   Unknown
1:35 AM 6.8 °F -5.9 °F 6.8 °F 100% 30.30 in 10.0 mi NW 8.1 mph - N/A   Unknown
1:55 AM 6.8 °F -3.5 °F 6.8 °F 100% 30.30 in 10.0 mi NNW 5.8 mph - N/A   Unknown
2:15 AM 6.8 °F -0.1 °F 6.8 °F 100% 30.30 in 10.0 mi North 3.5 mph - N/A   Unknown
2:35 AM 6.8 °F -3.5 °F 5.0 °F 92% 30.30 in 10.0 mi NW 5.8 mph - N/A   Unknown
3:15 AM 5.0 °F -4.1 °F 5.0 °F 100% 30.30 in 10.0 mi NNW 4.6 mph - N/A   Unknown
3:35 AM 5.0 °F -4.1 °F 1.4 °F 85% 30.30 in 10.0 mi NW 4.6 mph - N/A   Unknown
3:55 AM 3.2 °F -10.3 °F 1.4 °F 92% 30.30 in 10.0 mi NW 8.1 mph - N/A   Unknown
4:15 AM 3.2 °F -7.8 °F 1.4 °F 92% 30.30 in 10.0 mi NW 5.8 mph - N/A   Unknown
4:35 AM 3.2 °F -6.2 °F 1.4 °F 92% 30.31 in 10.0 mi WNW 4.6 mph - N/A   Unknown
4:55 AM 3.2 °F -6.2 °F 1.4 °F 92% 30.32 in 10.0 mi NW 4.6 mph - N/A   Unknown
5:15 AM 3.2 °F -6.2 °F 1.4 °F 92% 30.32 in 10.0 mi NW 4.6 mph - N/A   Unknown
5:35 AM 1.4 °F -9.9 °F -0.4 °F 92% 30.33 in 10.0 mi WNW 5.8 mph - N/A   Unknown
5:55 AM 1.4 °F -12.5 °F -0.4 °F 92% 30.33 in 10.0 mi WNW 8.1 mph - N/A   Unknown
6:15 AM 1.4 °F -9.9 °F -0.4 °F 92% 30.34 in 10.0 mi NW 5.8 mph - N/A   Unknown
6:35 AM 1.4 °F -8.3 °F -0.4 °F 92% 30.34 in 10.0 mi NW 4.6 mph - N/A   Unknown
6:55 AM 1.4 °F -8.3 °F -0.4 °F 92% 30.34 in 10.0 mi NW 4.6 mph - N/A   Unknown
7:15 AM -0.4 °F -12.0 °F -2.2 °F 92% 30.35 in 10.0 mi NNW 5.8 mph - N/A   Unknown
7:35 AM 1.4 °F -9.9 °F -0.4 °F 92% 30.35 in 10.0 mi NNW 5.8 mph - N/A   Unknown
7:55 AM 1.4 °F -9.9 °F -0.4 °F 92% 30.35 in 10.0 mi NW 5.8 mph - N/A   Unknown
8:15 AM -0.4 °F -10.4 °F -0.4 °F 100% 30.35 in 10.0 mi WNW 4.6 mph - N/A   Unknown
8:35 AM 1.4 °F -9.9 °F -0.4 °F 92% 30.36 in 10.0 mi NW 5.8 mph - N/A   Unknown
9:15 AM 1.4 °F -9.9 °F -0.4 °F 92% 30.37 in 10.0 mi WNW 5.8 mph - N/A   Unknown
9:35 AM 3.2 °F -6.2 °F 1.4 °F 92% 30.38 in 10.0 mi NW 4.6 mph - N/A   Unknown
10:15 AM 6.8 °F -2.0 °F 6.8 °F 100% 30.38 in 10.0 mi WNW 4.6 mph - N/A   Unknown
10:35 AM 8.6 °F -2.6 °F 6.8 °F 92% 30.39 in 10.0 mi WNW 6.9 mph - N/A   Unknown
10:55 AM 8.6 °F -1.3 °F 8.6 °F 100% 30.39 in 10.0 mi NW 5.8 mph - N/A   Unknown
11:15 AM 10.4 °F 2.2 °F 10.4 °F 100% 30.39 in 10.0 mi NNW 4.6 mph - N/A   Unknown
11:35 AM 10.4 °F 4.0 °F 10.4 °F 100% 30.38 in 10.0 mi NW 3.5 mph - N/A   Clear
11:55 AM 12.2 °F 6.1 °F 12.2 °F 100% 30.39 in 10.0 mi NW 3.5 mph - N/A   Unknown
12:15 PM 14.0 °F 5.1 °F 14.0 °F 100% 30.39 in 10.0 mi WNW 5.8 mph - N/A   Unknown
12:35 PM 14.0 °F 6.5 °F 14.0 °F 100% 30.39 in 10.0 mi WNW 4.6 mph - N/A   Unknown
12:55 PM 14.0 °F 6.5 °F 14.0 °F 100% 30.38 in 10.0 mi West 4.6 mph - N/A   Unknown
1:15 PM 15.8 °F 8.6 °F 14.0 °F 93% 30.37 in 10.0 mi West 4.6 mph - N/A   Unknown
1:35 PM 15.8 °F 8.6 °F 14.0 °F 93% 30.37 in 10.0 mi West 4.6 mph - N/A   Unknown
1:55 PM 15.8 °F 6.1 °F 14.0 °F 93% 30.37 in 10.0 mi WNW 6.9 mph - N/A   Unknown
2:15 PM 17.6 °F 10.7 °F 14.0 °F 86% 30.36 in 10.0 mi NW 4.6 mph - N/A   Unknown
2:35 PM 17.6 °F 9.3 °F 14.0 °F 86% 30.36 in 10.0 mi NW 5.8 mph - N/A   Unknown
2:55 PM 17.6 °F 10.7 °F 14.0 °F 86% 30.36 in 10.0 mi NW 4.6 mph - N/A   Unknown
3:15 PM 17.6 °F 10.7 °F 14.0 °F 86% 30.35 in 10.0 mi NNW 4.6 mph - N/A   Unknown
3:35 PM 17.6 °F 10.7 °F 14.0 °F 86% 30.36 in 10.0 mi NW 4.6 mph - N/A   Unknown
3:55 PM 17.6 °F 10.7 °F 14.0 °F 86% 30.36 in 10.0 mi NW 4.6 mph - N/A   Unknown
4:15 PM 17.6 °F 12.3 °F 14.0 °F 86% 30.35 in 10.0 mi NNW 3.5 mph - N/A   Unknown
4:35 PM 17.6 °F 12.3 °F 14.0 °F 86% 30.36 in 10.0 mi NNW 3.5 mph - N/A   Unknown
5:15 PM 17.6 °F - 15.8 °F 93% 30.36 in 10.0 mi Calm Calm - N/A   Unknown
5:35 PM 17.6 °F - 15.8 °F 93% 30.36 in 10.0 mi Calm Calm - N/A   Unknown
5:55 PM 15.8 °F - 14.0 °F 93% 30.36 in 10.0 mi Calm Calm - N/A   Unknown
6:15 PM 14.0 °F - 14.0 °F 100% 30.36 in 10.0 mi Calm Calm - N/A   Unknown
6:35 PM 14.0 °F 8.2 °F 14.0 °F 100% 30.37 in 10.0 mi WSW 3.5 mph - N/A   Unknown
6:55 PM 12.2 °F 6.1 °F 12.2 °F 100% 30.37 in 10.0 mi WSW 3.5 mph - N/A   Unknown
7:15 PM 14.0 °F 8.2 °F 14.0 °F 100% 30.37 in 10.0 mi West 3.5 mph - N/A   Unknown
7:35 PM 10.4 °F - 10.4 °F 100% 30.37 in 10.0 mi Calm Calm - N/A   Unknown
7:55 PM 8.6 °F - 8.6 °F 100% 30.36 in 5.0 mi Calm Calm - N/A   Mist
8:15 PM 8.6 °F - 8.6 °F 100% 30.36 in 1.2 mi Calm Calm - N/A   Mist
8:35 PM 6.8 °F -2.0 °F 5.0 °F 92% 30.35 in 0.2 mi South 4.6 mph - N/A Fog Light Freezing Fog
8:55 PM 6.8 °F - 5.0 °F 92% 30.36 in 7.0 mi Calm Calm - N/A   Unknown
9:15 PM 3.2 °F - 1.4 °F 92% 30.35 in 1.5 mi Calm Calm - N/A   Mist
9:35 PM 5.0 °F -2.1 °F 3.2 °F 92% 30.35 in 0.2 mi South 3.5 mph - N/A Fog Light Freezing Fog
9:55 PM 1.4 °F -6.2 °F -0.4 °F 92% 30.34 in 0.2 mi South 3.5 mph - N/A Fog Light Freezing Fog
10:15 PM -0.4 °F -8.3 °F -2.2 °F 92% 30.33 in 0.2 mi South 3.5 mph - N/A Fog Light Freezing Fog
10:35 PM -0.4 °F -10.4 °F -2.2 °F 92% 30.33 in 0.2 mi South 4.6 mph - N/A Fog Light Freezing Fog
10:55 PM -0.4 °F -12.0 °F -0.4 °F 100% 30.33 in 0.2 mi SSE 5.8 mph - N/A Fog Light Freezing Fog
11:15 PM -0.4 °F -10.4 °F -2.2 °F 92% 30.32 in 0.2 mi SSE 4.6 mph - N/A Fog Light Freezing Fog
11:35 PM -0.4 °F -8.3 °F -2.2 °F 92% 30.32 in 0.2 mi SSW 3.5 mph - N/A Fog Light Freezing Fog
11:55 PM -0.4 °F -10.4 °F -2.2 °F 92% 30.33 in 0.2 mi SSW 4.6 mph - N/A Fog Light Freezing Fog